Location: Unspecified
(0.0000°N, 0.0000°E)
Time: 23:56:01
(UTC+00:00)

S-56A Canister/Altair - Pass Details

Date: 10 October 2020
Orbit: 633 x 2499 km, 38.9° (Epoch: 28 October)

Event Time Altitude Azimuth Distance (km) Brightness Sun altitude
Rises 06:27:35 0° 212° (SSW) 3,376 10.6 10.1°
Reaches altitude 10° 06:29:54 10° 204° (SSW) 2,611 10.1 10.7°
Maximum altitude 06:35:47 41° 134° (SE) 1,640 10.1 12.1°
Drops below altitude 10° 06:44:23 10° 67° (ENE) 3,818 12.3 14.3°
Sets 06:48:27 0° 61° (ENE) 5,123 12.7 15.3°
